"1998/01/01",  4.6,  8.4,  0.0
"1998/01/02",  6.9,  8.6,  5.1
"1998/01/03",  6.8, 11.5,  3.5
"1998/01/04",  5.6,  8.5,  3.1
"1998/01/05",  4.6,  7.5,  0.1
"1998/01/06",  5.5, 10.4,  0.8
"1998/01/07",  4.6,  9.0,  1.7
"1998/01/08",  2.4,  4.1,  0.2
"1998/01/09",  2.5,  5.4,  0.4
"1998/01/10",  2.9,  6.5, -1.0
"1998/01/11",  4.2,  6.8,  0.3
"1998/01/12",  2.6,  5.9,  1.2
"1998/01/13",  3.5,  6.9,  0.4
"1998/01/14",  3.4,  8.9, -1.0
"1998/01/15",  3.3,  4.9,  1.7
"1998/01/16",  3.8,  6.8,  1.2
"1998/01/17",  3.9,  8.0, -0.2
"1998/01/18",  6.6,  9.7,  4.3
"1998/01/19",  4.9,  8.4,  1.4
"1998/01/20",  3.7,  8.4, -0.2
"1998/01/21",  4.4, 11.0, -0.9
"1998/01/22",  3.8,  9.6, -1.2
"1998/01/23",  3.9,  5.5,  2.4
"1998/01/24",  3.2,  7.7, -1.3
"1998/01/25",  1.3,  5.8, -3.3
"1998/01/26",  3.3,  9.7, -3.3
"1998/01/27",  3.1,  7.2,  0.8
"1998/01/28",  3.3,  7.4,  0.7
"1998/01/29",  2.2,  6.7, -1.7
"1998/01/30",  2.0,  6.1, -2.4
"1998/01/31",  4.1, 12.4, -1.4
"1998/02/01",  3.1,  5.6, -0.4
"1998/02/02",  3.8,  7.2,  0.4
"1998/02/03",  4.9,  9.7, -0.3
"1998/02/04",  5.2,  8.6,  1.9
"1998/02/05",  2.3,  6.0, -1.8
"1998/02/06",  3.5, 10.5, -3.1
"1998/02/07",  4.4,  7.0,  0.4
"1998/02/08",  4.9,  8.8,  3.1
"1998/02/09",  5.1,  9.1,  1.7
"1998/02/10",  2.4,  4.8, -0.4
"1998/02/11",  3.1,  6.6, -2.3
"1998/02/12",  6.2, 12.5,  1.5
"1998/02/13",  8.1, 15.7,  2.2
"1998/02/14",  8.1, 15.8,  4.9
"1998/02/15",  2.5,  6.5,  1.1
"1998/02/16",  3.4,  7.0,  0.5
"1998/02/17",  3.6,  5.9,  0.8
"1998/02/18",  2.8,  6.3, -1.4
"1998/02/19",  5.2, 12.8, -0.4
"1998/02/20",  6.2,  8.6,  2.8
"1998/02/21",  4.1,  7.2,  1.9
"1998/02/22",  2.7,  4.9,  0.0
"1998/02/23",  4.9,  9.3,  1.1
"1998/02/24",  5.0,  6.9,  3.5
"1998/02/25",  5.5,  6.9,  4.1
"1998/02/26",  6.7,  8.4,  5.2
"1998/02/27",  7.7, 12.0,  5.1
"1998/02/28",  7.5, 10.3,  5.6
"1998/03/01",  4.8,  7.8,  3.3
"1998/03/02",  5.7, 11.9,  1.0
"1998/03/03",  6.6, 10.8,  2.9
"1998/03/04",  8.6, 14.1,  2.5
"1998/03/05",  5.2,  6.9,  2.3
"1998/03/06",  5.0,  9.2,  1.3
"1998/03/07",  5.7, 11.8,  1.4
"1998/03/08",  4.5, 10.4, -0.9
"1998/03/09",  6.5, 13.8,  0.5
"1998/03/10",  4.6,  6.5,  1.7
"1998/03/11",  5.8, 10.6,  0.9
"1998/03/12",  8.8, 10.6,  6.5
"1998/03/13",  9.2, 12.4,  6.5
"1998/03/14", 10.1, 15.3,  4.1
"1998/03/15",  6.1,  9.8,  0.7
"1998/03/16",  5.0, 10.9,  0.4
"1998/03/17",  4.7,  7.5,  1.3
"1998/03/18",  4.5,  9.7, -1.1
"1998/03/19",  8.6, 15.1,  1.1
"1998/03/20", 14.4, 17.5,  7.7
"1998/03/21",  8.0,  8.7,  6.0
"1998/03/22",  5.5,  6.5,  4.2
"1998/03/23",  6.6, 12.1,  1.6
"1998/03/24",  8.3, 11.0,  5.3
"1998/03/25",  9.4, 12.3,  6.9
"1998/03/26", 10.1, 16.0,  5.1
"1998/03/27", 11.7, 14.3,  8.8
"1998/03/28", 12.7, 16.6, 10.1
"1998/03/29", 14.5, 23.1,  7.8
"1998/03/30", 15.3, 22.8,  9.5
"1998/03/31", 10.4, 13.5,  7.8
"1998/04/01",  6.0,  8.2,  2.7
"1998/04/02",  5.0,  7.0,  3.8
"1998/04/03",  6.8, 10.0,  1.5
"1998/04/04",  9.6, 12.7,  6.2
"1998/04/05", 12.7, 18.0,  7.6
"1998/04/06", 11.6, 13.1, 10.6
"1998/04/07"," * "," * "," * "
"1998/04/08"," * "," * "," * "
"1998/04/09",  8.6, 10.1,  7.3
"1998/04/10", 13.5, 19.9,  7.6
"1998/04/11", 16.0, 22.4,  9.6
"1998/04/12", 13.6, 17.3, 11.3
"1998/04/13", 20.4, 23.7, 17.2
"1998/04/14", 20.9, 22.7, 19.2
"1998/04/15", 12.8, 19.9,  9.9
"1998/04/16", 10.6, 12.7,  8.5
"1998/04/17", 10.6, 11.9,  9.8
"1998/04/18", 12.4, 16.2,  9.2
"1998/04/19", 16.2, 23.3, 11.8
"1998/04/20", 17.9, 22.4, 13.5
"1998/04/21", 19.5, 23.8, 14.5
"1998/04/22", 20.9, 25.8, 17.5
"1998/04/23", 20.9, 24.7, 16.9
"1998/04/24", 20.3, 23.7, 18.5
"1998/04/25", 19.8, 21.7, 13.5
"1998/04/26", 10.8, 13.5,  9.4
"1998/04/27", 11.1, 12.7,  9.4
"1998/04/28", 13.8, 16.5, 11.2
"1998/04/29", 16.7, 22.3, 13.4
"1998/04/30", 16.5, 19.2, 13.8
"1998/05/01", 16.6, 19.9, 13.2
"1998/05/02", 21.4, 24.8, 16.7
"1998/05/03", 20.2, 24.3, 10.3
"1998/05/04", 10.8, 12.9,  9.2
"1998/05/05", 14.2, 17.1, 10.2
"1998/05/06", 19.1, 24.5, 15.1
"1998/05/07", 20.4, 25.5, 15.9
"1998/05/08", 20.5, 25.5, 15.4
"1998/05/09", 16.3, 17.7, 14.6
"1998/05/10", 18.0, 22.4, 15.6
"1998/05/11", 13.6, 15.7, 11.9
"1998/05/12", 15.7, 22.3, 12.4
"1998/05/13", 20.4, 23.2, 17.1
"1998/05/14", 16.6, 19.0, 13.6
"1998/05/15", 15.7, 19.0, 12.6
"1998/05/16", 19.0, 25.2, 13.6
"1998/05/17", 20.9, 25.1, 18.6
"1998/05/18", 22.2, 24.2, 20.1
"1998/05/19", 19.2, 21.2, 17.6
"1998/05/20", 20.8, 26.2, 17.8
"1998/05/21", 21.1, 25.9, 16.1
"1998/05/22", 18.5, 19.9, 16.2
"1998/05/23", 20.1, 25.7, 15.5
"1998/05/24", 21.0, 24.7, 18.3
"1998/05/25", 23.3, 26.8, 17.3
"1998/05/26", 14.4, 17.3, 12.3
"1998/05/27", 17.1, 20.2, 13.6
"1998/05/28", 18.0, 20.6, 15.8
"1998/05/29", 19.5, 21.9, 17.5
"1998/05/30", 20.7, 23.4, 18.9
"1998/05/31", 20.3, 23.4, 18.0
"1998/06/01", 21.9, 27.3, 17.9
"1998/06/02", 18.0, 20.7, 14.8
"1998/06/03", 16.6, 18.0, 14.9
"1998/06/04", 19.2, 23.8, 16.2
"1998/06/05", 17.7, 20.1, 14.5
"1998/06/06", 13.9, 14.8, 13.3
"1998/06/07", 14.3, 15.4, 13.1
"1998/06/08", 17.0, 19.8, 13.4
"1998/06/09", 18.1, 21.2, 15.5
"1998/06/10", 17.8, 18.8, 17.0
"1998/06/11", 17.9, 19.8, 15.4
"1998/06/12", 16.9, 19.2, 15.5
"1998/06/13", 17.2, 18.8, 16.0
"1998/06/14", 17.8, 18.9, 16.6
"1998/06/15", 18.8, 21.0, 17.5
"1998/06/16", 20.2, 24.3, 16.3
"1998/06/17", 20.5, 22.3, 19.0
"1998/06/18", 19.5, 22.3, 17.7
"1998/06/19", 20.4, 25.1, 17.9
"1998/06/20", 26.2, 32.2, 21.2
"1998/06/21", 20.0, 21.5, 17.1
"1998/06/22", 15.2, 17.1, 14.3
"1998/06/23", 15.4, 16.3, 14.6
"1998/06/24", 18.5, 21.6, 15.5
"1998/06/25", 21.0, 22.9, 19.4
"1998/06/26", 24.6, 28.7, 21.3
"1998/06/27", 26.1, 30.2, 23.7
"1998/06/28", 26.2, 31.6, 23.1
"1998/06/29", 23.3, 27.1, 20.4
"1998/06/30", 21.3, 25.5, 17.1
"1998/07/01", 24.5, 28.9, 20.8
"1998/07/02", 26.5, 31.0, 23.0
"1998/07/03", 27.7, 34.2, 23.5
"1998/07/04", 27.4, 31.4, 24.4
"1998/07/05", 24.4, 26.4, 23.1
"1998/07/06", 25.0, 27.8, 22.7
"1998/07/07", 24.7, 28.5, 22.1
"1998/07/08", 25.1, 29.5, 21.8
"1998/07/09", 26.9, 32.5, 23.9
"1998/07/10", 24.5, 27.4, 21.9
"1998/07/11", 24.1, 27.5, 19.3
"1998/07/12", 17.8, 19.4, 15.9
"1998/07/13", 17.0, 19.0, 15.8
"1998/07/14", 18.7, 21.6, 16.5
"1998/07/15", 18.6, 20.4, 17.5
"1998/07/16", 17.9, 18.5, 17.0
"1998/07/17", 18.9, 20.4, 17.4
"1998/07/18", 19.9, 22.7, 18.3
"1998/07/19", 21.8, 24.6, 18.4
"1998/07/20", 23.0, 25.4, 20.7
"1998/07/21", 20.9, 22.5, 19.7
"1998/07/22", 19.5, 23.6, 18.3
"1998/07/23", 24.7, 29.2, 21.0
"1998/07/24", 24.0, 27.1, 22.1
"1998/07/25", 23.4, 25.0, 22.7
"1998/07/26", 24.1, 25.8, 23.3
"1998/07/27", 25.8, 29.6, 23.3
"1998/07/28", 27.6, 30.9, 24.0
"1998/07/29", 25.8, 31.8, 21.3
"1998/07/30", 21.9, 25.1, 20.8
"1998/07/31", 22.3, 24.9, 20.4
"1998/08/01", 24.5, 27.9, 21.5
"1998/08/02", 27.6, 32.2, 24.9
"1998/08/03", 27.3, 32.7, 24.5
"1998/08/04", 25.7, 27.7, 24.0
"1998/08/05", 26.3, 29.4, 23.1
"1998/08/06", 23.8, 25.8, 22.2
"1998/08/07", 24.1, 29.5, 22.4
"1998/08/08", 21.5, 22.8, 20.1
"1998/08/09", 21.0, 22.5, 19.7
"1998/08/10", 23.0, 25.8, 20.6
"1998/08/11", 25.1, 28.9, 22.6
"1998/08/12", 26.6, 29.5, 24.2
"1998/08/13", 26.3, 31.0, 24.1
"1998/08/14", 25.1, 28.6, 23.1
"1998/08/15", 24.2, 25.7, 23.5
"1998/08/16", 27.9, 31.8, 24.0
"1998/08/17", 25.8, 29.9, 23.5
"1998/08/18", 23.8, 25.4, 22.8
"1998/08/19", 23.7, 26.5, 22.5
"1998/08/20", 27.1, 31.9, 23.5
"1998/08/21", 25.0, 27.9, 23.0
"1998/08/22", 23.8, 24.9, 22.7
"1998/08/23", 23.8, 26.1, 22.2
"1998/08/24", 25.4, 28.4, 22.6
"1998/08/25", 27.6, 31.8, 23.9
"1998/08/26", 27.9, 32.2, 25.5
"1998/08/27", 27.3, 30.2, 25.3
"1998/08/28", 26.7, 28.4, 25.6
"1998/08/29", 26.1, 28.2, 24.8
"1998/08/30", 24.0, 26.4, 21.4
"1998/08/31", 22.4, 24.0, 21.3
"1998/09/01", 21.8, 23.1, 20.5
"1998/09/02", 22.1, 23.9, 20.9
"1998/09/03", 22.6, 25.4, 21.3
"1998/09/04", 22.3, 24.4, 20.7
"1998/09/05", 22.6, 24.7, 21.2
"1998/09/06", 22.4, 24.1, 21.6
"1998/09/07", 21.2, 22.5, 20.1
"1998/09/08", 21.9, 23.9, 20.5
"1998/09/09", 23.2, 25.6, 21.0
"1998/09/10", 22.9, 25.2, 20.8
"1998/09/11", 22.6, 25.7, 20.3
"1998/09/12", 22.8, 24.8, 21.1
"1998/09/13", 22.9, 26.2, 20.1
"1998/09/14", 23.4, 25.4, 21.5
"1998/09/15", 23.9, 26.9, 20.9
"1998/09/16"," * "," * "," * "
"1998/09/17", 24.4, 27.8, 21.1
"1998/09/18", 22.0, 22.8, 21.1
"1998/09/19", 25.3, 30.9, 22.3
"1998/09/20", 26.1, 30.6, 22.8
"1998/09/21", 25.7, 28.3, 23.7
"1998/09/22", 27.3, 30.0, 25.8
"1998/09/23", 25.0, 26.9, 21.8
"1998/09/24", 22.0, 23.6, 21.0
"1998/09/25", 25.9, 29.6, 23.0
"1998/09/26", 21.6, 24.8, 19.1
"1998/09/27", 18.7, 20.2, 17.6
"1998/09/28", 19.9, 21.9, 17.7
"1998/09/29", 20.8, 22.1, 19.5
"1998/09/30", 20.9, 22.1, 19.7
"1998/10/01", 21.2, 22.2, 20.7
"1998/10/02", 24.0, 30.4, 20.6
"1998/10/03", 21.0, 23.5, 17.6
"1998/10/04", 22.1, 25.8, 19.0
"1998/10/05", 18.9, 20.7, 18.1
"1998/10/06", 19.5, 20.9, 17.9
"1998/10/07", 21.0, 22.9, 18.7
"1998/10/08", 22.4, 28.5, 18.5
"1998/10/09", 20.4, 25.1, 16.3
"1998/10/10", 20.6, 24.8, 17.3
"1998/10/11", 18.2, 20.3, 15.9
"1998/10/12", 17.6, 20.9, 14.6
"1998/10/13", 18.6, 21.1, 15.5
"1998/10/14", 19.4, 21.5, 16.7
"1998/10/15", 23.9, 26.9, 20.5
"1998/10/16", 21.9, 24.5, 19.6
"1998/10/17", 17.8, 19.8, 16.6
"1998/10/18", 24.0, 26.8, 18.2
"1998/10/19", 21.3, 24.4, 19.7
"1998/10/20"," * "," * "," * "
"1998/10/21", 14.8, 16.1, 13.3
"1998/10/22", 15.7, 17.7, 13.5
"1998/10/23", 15.3, 17.5, 14.2
"1998/10/24", 14.4, 15.0, 13.5
"1998/10/25", 16.5, 22.0, 10.9
"1998/10/26", 16.4, 19.6, 13.4
"1998/10/27", 14.2, 16.0, 12.3
"1998/10/28", 16.1, 21.4, 11.7
"1998/10/29", 17.2, 19.5, 15.2
"1998/10/30", 17.5, 21.3, 14.4
"1998/10/31", 17.8, 21.9, 15.4
"1998/11/01", 17.4, 20.7, 15.3
"1998/11/02", 14.9, 15.9, 13.4
"1998/11/03", 16.4, 20.4, 13.1
"1998/11/04", 17.2, 20.6, 14.3
"1998/11/05", 15.4, 17.2, 11.8
"1998/11/06", 11.6, 12.8, 10.3
"1998/11/07", 12.8, 14.6, 11.2
"1998/11/08", 13.9, 19.0,  8.2
"1998/11/09", 16.3, 22.5, 10.1
"1998/11/10", 13.6, 18.6, 11.4
"1998/11/11", 12.0, 14.6, 10.0
"1998/11/12", 11.9, 15.7,  7.7
"1998/11/13", 10.7, 15.4,  6.4
"1998/11/14", 12.9, 21.4,  5.5
"1998/11/15", 13.7, 20.8,  7.5
"1998/11/16", 13.8, 20.6,  6.9
"1998/11/17", 17.0, 21.7, 13.4
"1998/11/18", 11.7, 13.8,  8.5
"1998/11/19",  8.5, 12.4,  3.8
"1998/11/20",  7.9, 11.6,  3.7
"1998/11/21",  8.4, 11.9,  4.0
"1998/11/22",  7.1,  8.8,  5.1
"1998/11/23",  8.2, 12.7,  5.3
"1998/11/24",  9.3, 12.9,  4.5
"1998/11/25",  8.9, 14.3,  4.3
"1998/11/26",  7.4, 11.3,  2.9
"1998/11/27",  8.7, 12.7,  2.9
"1998/11/28", 11.1, 17.8,  6.8
"1998/11/29",  8.7, 10.8,  5.7
"1998/11/30",  8.8, 11.9,  4.4
"1998/12/01", 11.1, 16.5,  7.0
"1998/12/02",  8.1, 11.9,  3.3
"1998/12/03",  4.3,  5.8,  3.1
"1998/12/04",  6.2,  8.6,  3.8
"1998/12/05",  7.1,  8.8,  5.1
"1998/12/06",  9.3, 11.6,  7.2
"1998/12/07",  7.7,  8.3,  7.4
"1998/12/08",  9.4, 11.6,  7.8
"1998/12/09",  8.2, 10.8,  6.5
"1998/12/10",  6.3,  8.3,  4.2
"1998/12/11",  6.6, 10.0,  4.0
"1998/12/12",  5.4,  8.1,  1.8
"1998/12/13",  6.1, 11.5,  0.0
"1998/12/14",  6.8, 14.1,  0.1
"1998/12/15",  8.8, 12.8,  5.5
"1998/12/16",  8.3, 11.5,  4.3
"1998/12/17",  9.0, 16.2,  3.8
"1998/12/18",  7.0,  9.8,  4.4
"1998/12/19",  6.3, 12.1,  1.3
"1998/12/20",  7.7, 12.7,  3.7
"1998/12/21",  5.6, 10.2,  2.1
"1998/12/22",  6.3, 13.3,  0.3
"1998/12/23",  7.3, 11.9,  2.3
"1998/12/24",  6.7,  9.9,  2.1
"1998/12/25",  5.0, 10.0, -0.7
"1998/12/26",  6.3, 12.8,  0.6
"1998/12/27",  5.8,  9.3,  1.4
"1998/12/28",  5.6, 10.7, -0.9
"1998/12/29",  6.1, 12.5,  0.9
"1998/12/30",  6.5, 12.9,  1.6
"1998/12/31",  4.0,  8.4,  0.5
